Terminal Aerodrome Forecast
Issued by NWS

Home | Current Version | Previous Version | Text Only | Print | Product List | Glossary On
Versions: 1 2 3 4 5 6 7 8 9 10 11 12 13 14 15 16 17 18 19 20 21 22 23 24 25 26 27 28 29 30 31 32 33 34 35 36 37 38 39 40 41 42 43 44 45 46 47 48 49 50
000
FTAK31 PANC 022339
TAFASN
TAF
PASN 022339Z 0300/0324 29008KT P6SM -RA OVC005
     FM031200 01004KT 1SM BR OVC003
     FM032100 36018KT 5SM BR OVC012=

USA.gov is the U.S. government's official web portal to all federal, state and local government web resources and services.